,,PA_Meas_PMT16A,,PR_Meas_QMR101_102,,RH_Meas_QMH101,,SR_Meas_QMS101,,TA_Meas_QMH101,,GenWind,,GenWind,
time,status,PA,status,PR,status,RH,status,SR,status,TA,status,DirAvg,status,SpdAvg,
2014-02-12, 00:00:04,VALID,915.924,VALID,0,VALID,85.8854,VALID,0,VALID,19.4298,VALID,129,VALID,1.39609,
2014-02-12, 00:01:04,VALID,915.905,VALID,0,VALID,85.6262,VALID,0,VALID,19.5093,VALID,132,VALID,1.22656,
2014-02-12, 00:02:04,VALID,915.9,VALID,0,VALID,85.2832,VALID,0,VALID,19.5483,VALID,127,VALID,1.31758,
2014-02-12, 00:03:04,VALID,915.872,VALID,0,VALID,85.1231,VALID,0,VALID,19.5678,VALID,126,VALID,1.28711,
2014-02-12, 07:00:04,VALID,914.964,VALID,0,VALID,88.1267,VALID,38.2491,VALID,18.3979,VALID,133,VALID,0.289453,
2014-02-12, 07:04:04,VALID,914.997,VALID,0,VALID,88.0733,VALID,44.0509,VALID,18.4564,VALID,168,VALID,0.771484,
2014-02-12, 07:05:04,VALID,914.969,VALID,0,VALID,88.1191,VALID,45.4476,VALID,18.4759,VALID,159,VALID,0.829687,
2014-02-12, 07:06:04,VALID,914.986,VALID,0,VALID,88.1419,VALID,46.7369,VALID,18.5358,VALID,169,VALID,0.939453,
2014-02-12, 07:07:04,VALID,915.031,VALID,0,VALID,88.2258,VALID,48.3485,VALID,18.5344,VALID,170,VALID,0.0289063,
2014-02-12, 07:08:04,VALID,915.029,VALID,0,VALID,88.3097,VALID,49.6378,VALID,18.5539,VALID,169,VALID,0.758594,
2014-02-12, 07:09:04,VALID,915.059,VALID,0,VALID,88.2182,VALID,51.3569,VALID,18.5943,VALID,169,VALID,0.4,
2014-02-12, 07:10:04,VALID,915.042,VALID,0,VALID,88.1343,VALID,52.9685,VALID,18.5929,VALID,166,VALID,0.504297,
2014-02-12, 07:11:04,VALID,915.052,VALID,0,VALID,88.1801,VALID,54.9024,VALID,18.6124,VALID,150,VALID,0.507813,
2014-02-12, 07:12:04,VALID,915.053,VALID,0,VALID,88.3554,VALID,56.8364,VALID,18.6528,VALID,130,VALID,0.422656,
2014-02-12, 07:13:04,VALID,915.053,VALID,0,VALID,88.4316,VALID,58.7703,VALID,18.6513,VALID,159,VALID,0.948438,
2014-02-12, 07:14:04,VALID,915.068,VALID,0,VALID,88.4392,VALID,60.8117,VALID,18.7098,VALID,137,VALID,0.902734,
2014-02-12, 07:15:04,VALID,915.066,VALID,0,VALID,88.3173,VALID,62.7456,VALID,18.7488,VALID,135,VALID,1.12188,
2014-02-12, 07:16:04,VALID,915.106,VALID,0,VALID,88.2487,VALID,64.6796,VALID,18.7878,VALID,142,VALID,1.12773,
2014-02-12, 07:17:04,VALID,915.1,VALID,0,VALID,88.2182,VALID,66.8284,VALID,18.8268,VALID,134,VALID,1.34687,
2014-02-12, 07:18:04,VALID,915.12,VALID,0,VALID,88.1038,VALID,69.0847,VALID,18.8867,VALID,133,VALID,0.998828,
2014-02-12, 07:19:04,VALID,915.125,VALID,0,VALID,88.0276,VALID,71.3409,VALID,18.9048,VALID,123,VALID,0.979688,
2014-02-12, 07:20:04,VALID,915.138,VALID,0,VALID,88.1343,VALID,73.5972,VALID,18.9243,VALID,126,VALID,0.964453,
2014-02-12, 07:21:04,VALID,915.141,VALID,0,VALID,88.0581,VALID,75.6386,VALID,18.9647,VALID,134,VALID,0.827344,
2014-02-12, 07:22:04,VALID,915.199,VALID,0,VALID,87.9895,VALID,77.68,VALID,18.9828,VALID,113,VALID,0.555469,
2014-02-12, 07:23:04,VALID,915.216,VALID,0,VALID,87.8751,VALID,79.8288,VALID,19.0023,VALID,130,VALID,0.963672,
2014-02-12, 07:24:04,VALID,915.235,VALID,0,VALID,87.8599,VALID,81.8702,VALID,19.0608,VALID,144,VALID,0.371094,
2014-02-12, 07:25:04,VALID,915.237,VALID,0,VALID,87.5168,VALID,84.1264,VALID,19.0608,VALID,135,VALID,1.37227,
2014-02-12, 07:26:04,VALID,915.25,VALID,0,VALID,87.433,VALID,86.4901,VALID,19.1207,VALID,143,VALID,1.03047,
2014-02-12, 07:27:04,VALID,915.265,VALID,0,VALID,87.2271,VALID,88.9613,VALID,19.1388,VALID,132,VALID,1.16914,
2014-02-12, 07:28:04,VALID,915.268,VALID,0,VALID,87.0975,VALID,91.325,VALID,19.1778,VALID,133,VALID,0.833203,
2014-02-12, 07:29:04,VALID,915.295,VALID,0,VALID,87.1509,VALID,93.4738,VALID,19.1973,VALID,135,VALID,0.834766,
2014-02-12, 07:30:04,VALID,915.303,VALID,0,VALID,87.1509,VALID,95.7301,VALID,19.2363,VALID,130,VALID,0.858984,
2014-02-12, 07:31:04,VALID,915.301,VALID,0,VALID,87.0518,VALID,97.8789,VALID,19.2558,VALID,133,VALID,1.34727,
2014-02-12, 07:32:04,VALID,915.309,VALID,0,VALID,87.0975,VALID,100.672,VALID,19.2948,VALID,146,VALID,0.712109,
2014-02-12, 07:33:04,VALID,915.323,VALID,0,VALID,86.9069,VALID,102.069,VALID,19.3143,VALID,136,VALID,0.967188,
2014-02-12, 07:34:04,VALID,915.332,VALID,0,VALID,86.7697,VALID,103.896,VALID,19.3338,VALID,156,VALID,1.01719,
2014-02-12, 07:35:04,VALID,915.365,VALID,0,VALID,86.5029,VALID,105.937,VALID,19.3742,VALID,139,VALID,1.41211,
2014-02-12, 07:36:04,VALID,915.352,VALID,0,VALID,86.7545,VALID,108.086,VALID,19.3923,VALID,153,VALID,0.827734,
2014-02-12, 07:37:04,VALID,915.356,VALID,0,VALID,86.419,VALID,110.127,VALID,19.4313,VALID,148,VALID,0.922656,
2014-02-12, 07:38:04,VALID,915.398,VALID,0,VALID,86.2056,VALID,112.383,VALID,19.4508,VALID,169,VALID,1.27188,
2014-02-12, 07:39:04,VALID,915.355,VALID,0,VALID,85.8702,VALID,114.425,VALID,19.4703,VALID,159,VALID,1.17344,
2014-02-12, 07:40:04,VALID,915.402,VALID,0,VALID,85.8854,VALID,116.466,VALID,19.4898,VALID,164,VALID,1.03086,
2014-02-12, 07:41:04,VALID,915.413,VALID,0,VALID,86.076,VALID,118.4,VALID,19.5093,VALID,162,VALID,0.971094,
2014-02-12, 07:42:04,VALID,915.438,VALID,0,VALID,85.9769,VALID,120.119,VALID,19.5288,VALID,170,VALID,1.36445,
2014-02-12, 07:43:04,VALID,915.424,VALID,0,VALID,85.3746,VALID,121.623,VALID,19.5078,VALID,175,VALID,1.46406,
2014-02-12, 07:44:04,VALID,915.453,VALID,0,VALID,85.5728,VALID,122.483,VALID,19.5483,VALID,172,VALID,1.28047,
2014-02-12, 07:45:04,VALID,915.477,VALID,0,VALID,85.5119,VALID,123.235,VALID,19.5678,VALID,152,VALID,1.18281,
2014-02-12, 07:46:04,VALID,915.477,VALID,0,VALID,85.5424,VALID,123.772,VALID,19.6053,VALID,157,VALID,0.649219,
2014-02-12, 07:47:04,VALID,915.487,VALID,0,VALID,86.076,VALID,123.772,VALID,19.6833,VALID,157,VALID,0.319141,
2014-02-12, 07:48:04,VALID,915.507,VALID,0,VALID,85.428,VALID,123.235,VALID,19.7433,VALID,163,VALID,0.538281,
2014-02-12, 07:49:04,VALID,915.538,VALID,0,VALID,85.1917,VALID,122.375,VALID,19.7823,VALID,160,VALID,1.03281,
2014-02-12, 07:50:04,VALID,915.576,VALID,0,VALID,84.8867,VALID,121.516,VALID,19.7613,VALID,162,VALID,1.11484,
2014-02-12, 07:51:04,VALID,915.562,VALID,0,VALID,84.9782,VALID,120.442,VALID,19.8408,VALID,174,VALID,1.27813,
2014-02-12, 07:52:04,VALID,915.595,VALID,0,VALID,84.6199,VALID,119.582,VALID,19.8198,VALID,177,VALID,1.04492,
2014-02-12, 07:53:04,VALID,915.594,VALID,0,VALID,84.4751,VALID,118.937,VALID,19.8783,VALID,163,VALID,1.05,
2014-02-12, 07:54:04,VALID,915.619,VALID,0,VALID,85.2374,VALID,118.722,VALID,19.9563,VALID,147,VALID,0.125391,
2014-02-12, 07:55:04,VALID,915.643,VALID,0,VALID,84.4217,VALID,119.045,VALID,19.9758,VALID,159,VALID,1.06953,
2014-02-12, 07:56:04,VALID,915.667,VALID,0,VALID,84.6657,VALID,120.012,VALID,20.0148,VALID,169,VALID,1.30898,
2014-02-12, 07:57:04,VALID,915.692,VALID,0,VALID,84.3455,VALID,121.409,VALID,19.9953,VALID,145,VALID,1.11445,
2014-02-12, 07:58:04,VALID,915.706,VALID,0,VALID,84.0253,VALID,123.45,VALID,20.0148,VALID,171,VALID,0.713672,
2014-02-12, 07:59:04,VALID,915.721,VALID,0,VALID,83.5526,VALID,126.351,VALID,20.0343,VALID,180,VALID,0.919141,
2014-02-12, 08:00:04,VALID,915.735,VALID,0,VALID,83.6594,VALID,129.681,VALID,20.0553,VALID,162,VALID,0.683203,
2014-02-12, 08:01:04,VALID,915.748,VALID,0,VALID,83.9109,VALID,133.549,VALID,20.0523,VALID,174,VALID,1.23164,
2014-02-12, 08:02:04,VALID,915.765,VALID,0,VALID,82.9428,VALID,137.847,VALID,20.0928,VALID,171,VALID,0.726563,
2014-02-12, 08:03:04,VALID,915.735,VALID,0,VALID,83.5908,VALID,142.252,VALID,20.1513,VALID,183,VALID,0.842188,
2014-02-12, 08:04:04,VALID,915.78,VALID,0,VALID,83.9262,VALID,147.302,VALID,20.1318,VALID,182,VALID,0.870313,
2014-02-12, 08:05:04,VALID,915.764,VALID,0,VALID,83.8576,VALID,152.889,VALID,20.0913,VALID,153,VALID,0.889844,
2014-02-12, 08:06:04,VALID,915.797,VALID,0,VALID,84.5132,VALID,158.583,VALID,20.1708,VALID,157,VALID,0.335547,
2014-02-12, 08:07:04,VALID,915.818,VALID,0,VALID,84.2464,VALID,164.815,VALID,20.2098,VALID,167,VALID,0.659766,
2014-02-12, 08:08:04,VALID,915.85,VALID,0,VALID,84.2311,VALID,171.369,VALID,20.1903,VALID,170,VALID,0.949219,
2014-02-12, 08:09:04,VALID,915.847,VALID,0,VALID,84.7495,VALID,178.352,VALID,20.2293,VALID,167,VALID,0.310937,
2014-02-12, 08:10:04,VALID,915.879,VALID,0,VALID,84.1168,VALID,185.551,VALID,20.2863,VALID,166,VALID,0.582422,
2014-02-12, 08:11:04,VALID,915.87,VALID,0,VALID,82.5692,VALID,192.535,VALID,20.3464,VALID,166,VALID,1.03164,
2014-02-12, 08:12:04,VALID,915.872,VALID,0,VALID,82.7827,VALID,199.411,VALID,20.4244,VALID,181,VALID,0.549609,
2014-02-12, 08:13:04,VALID,915.925,VALID,0,VALID,83.606,VALID,206.287,VALID,20.4829,VALID,165,VALID,0.791406,
2014-02-12, 08:14:04,VALID,915.927,VALID,0,VALID,83.4002,VALID,212.948,VALID,20.5414,VALID,180,VALID,0.80625,
2014-02-12, 08:15:04,VALID,915.938,VALID,0,VALID,82.2033,VALID,217.998,VALID,20.6194,VALID,183,VALID,0.972656,
2014-02-12, 08:16:04,VALID,915.932,VALID,0,VALID,81.3342,VALID,219.825,VALID,20.6975,VALID,178,VALID,0.713281,
2014-02-12, 08:17:04,VALID,915.933,VALID,0,VALID,81.2885,VALID,221.651,VALID,20.795,VALID,188,VALID,1.01211,
2014-02-12, 08:18:04,VALID,915.94,VALID,0,VALID,81.319,VALID,225.412,VALID,20.8535,VALID,184,VALID,0.68125,
2014-02-12, 08:19:04,VALID,915.964,VALID,0,VALID,79.6952,VALID,228.42,VALID,20.8714,VALID,161,VALID,0.716016,
2014-02-12, 08:20:04,VALID,915.959,VALID,0,VALID,80.2517,VALID,231.965,VALID,20.9722,VALID,180,VALID,0.355078,
2014-02-12, 08:21:04,VALID,915.964,VALID,0,VALID,80.0611,VALID,236.156,VALID,21.0697,VALID,191,VALID,0.91875,
2014-02-12, 08:22:04,VALID,916.009,VALID,0,VALID,80.1907,VALID,239.164,VALID,21.1282,VALID,206,VALID,0.903516,
2014-02-12, 08:23:04,VALID,915.983,VALID,0,VALID,79.4512,VALID,245.503,VALID,21.1461,VALID,205,VALID,0.701172,
2014-02-12, 08:24:04,VALID,916.005,VALID,0,VALID,79.8629,VALID,247.222,VALID,21.2063,VALID,213,VALID,0.952344,
2014-02-12, 08:25:04,VALID,916.019,VALID,0,VALID,79.497,VALID,248.726,VALID,21.2648,VALID,201,VALID,0.978516,
2014-02-12, 08:26:04,VALID,916.029,VALID,0,VALID,78.727,VALID,272.041,VALID,21.2437,VALID,157,VALID,1.02734,
2014-02-12, 08:27:04,VALID,916.032,VALID,0,VALID,79.4512,VALID,255.817,VALID,21.2242,VALID,158,VALID,0.866797,
2014-02-12, 08:28:04,VALID,916.059,VALID,0,VALID,79.9239,VALID,249.478,VALID,21.2632,VALID,197,VALID,0.821484,
2014-02-12, 08:29:04,VALID,916.051,VALID,0,VALID,79.497,VALID,249.478,VALID,21.2811,VALID,180,VALID,0.392188,
2014-02-12, 08:30:04,VALID,916.05,VALID,0,VALID,79.6571,VALID,254.098,VALID,21.3412,VALID,180,VALID,0.530859,
2014-02-12, 08:31:04,VALID,916.073,VALID,0,VALID,79.375,VALID,251.52,VALID,21.4388,VALID,180,VALID,0.0121094,
2014-02-12, 08:32:04,VALID,916.104,VALID,0,VALID,77.9875,VALID,299.976,VALID,21.5949,VALID,207,VALID,0.601953,
2014-02-12, 08:33:04,VALID,916.11,VALID,0,VALID,77.8579,VALID,278.595,VALID,21.7315,VALID,192,VALID,0.835547,
2014-02-12, 08:34:04,VALID,916.104,VALID,0,VALID,76.8593,VALID,260.76,VALID,21.8485,VALID,193,VALID,0.726563,
2014-02-12, 08:35:04,VALID,916.116,VALID,0,VALID,77.4387,VALID,265.38,VALID,21.8485,VALID,175,VALID,0.528906,
2014-02-12, 08:36:04,VALID,916.13,VALID,0,VALID,76.8974,VALID,274.19,VALID,21.8664,VALID,161,VALID,1.06328,
2014-02-12, 08:37:04,VALID,916.156,VALID,0,VALID,78.4907,VALID,278.81,VALID,21.7298,VALID,154,VALID,0.990234,
2014-02-12, 08:38:04,VALID,916.14,VALID,0,VALID,78.849,VALID,349.613,VALID,21.6339,VALID,161,VALID,0.9625,
2014-02-12, 08:39:04,VALID,916.154,VALID,0,VALID,77.6597,VALID,357.672,VALID,21.6339,VALID,160,VALID,1.84453,
2014-02-12, 08:40:04,VALID,916.158,VALID,0,VALID,78.079,VALID,383.457,VALID,21.6534,VALID,160,VALID,0.687891,
2014-02-12, 08:41:04,VALID,916.147,VALID,0,VALID,77.4844,VALID,315.447,VALID,21.6924,VALID,143,VALID,1.35117,
2014-02-12, 08:42:04,VALID,916.167,VALID,0,VALID,77.7893,VALID,284.612,VALID,21.7103,VALID,152,VALID,0.747656,
2014-02-12, 08:43:04,VALID,916.187,VALID,0,VALID,78.2467,VALID,312.976,VALID,21.7883,VALID,151,VALID,0.55625,
2014-02-12, 08:44:04,VALID,916.222,VALID,0,VALID,77.6902,VALID,318.563,VALID,21.9054,VALID,151,VALID,0.407813,
2014-02-12, 08:45:04,VALID,916.195,VALID,0,VALID,77.3167,VALID,344.886,VALID,22.1201,VALID,151,VALID,0.271484,
2014-02-12, 08:46:04,VALID,916.193,VALID,0,VALID,75.7996,VALID,296.215,VALID,22.3152,VALID,151,VALID,0.68125,
2014-02-12, 08:47:04,VALID,916.24,VALID,0,VALID,75.022,VALID,311.257,VALID,22.4908,VALID,144,VALID,0.707422,
2014-02-12, 08:48:04,VALID,916.194,VALID,0,VALID,74.6409,VALID,291.488,VALID,22.5884,VALID,163,VALID,0.948047,
2014-02-12, 08:49:04,VALID,916.195,VALID,0,VALID,73.261,VALID,297.397,VALID,22.4713,VALID,165,VALID,1.92539,
2014-02-12, 08:50:04,VALID,916.213,VALID,0,VALID,76.5162,VALID,331.456,VALID,22.2159,VALID,170,VALID,1.00547,
2014-02-12, 08:51:04,VALID,916.192,VALID,0,VALID,75.3651,VALID,341.126,VALID,22.1591,VALID,160,VALID,1.33438,
2014-02-12, 08:52:04,VALID,916.21,VALID,0,VALID,75.6243,VALID,376.366,VALID,22.1591,VALID,169,VALID,1.93398,
2014-02-12, 08:53:04,VALID,916.247,VALID,0,VALID,76.1046,VALID,328.448,VALID,22.081,VALID,181,VALID,0.677734,
2014-02-12, 08:54:04,VALID,916.259,VALID,0,VALID,77.1718,VALID,385.929,VALID,22.1964,VALID,180,VALID,0.289063,
2014-02-12, 08:55:04,VALID,916.258,VALID,0,VALID,76.1884,VALID,356.06,VALID,22.2567,VALID,134,VALID,1.48047,
2014-02-12, 08:56:04,VALID,916.271,VALID,0,VALID,76.6001,VALID,377.871,VALID,22.3737,VALID,134,VALID,0.922266,
2014-02-12, 08:57:04,VALID,916.28,VALID,0,VALID,75.2126,VALID,498.419,VALID,22.4891,VALID,159,VALID,1.64102,
2014-02-12, 08:58:04,VALID,916.295,VALID,0,VALID,74.5799,VALID,436.319,VALID,22.5299,VALID,165,VALID,1.16133,
2014-02-12, 08:59:04,VALID,916.282,VALID,0,VALID,74.9763,VALID,553.429,VALID,22.4518,VALID,156,VALID,1.07109,
2014-02-12, 09:00:04,VALID,916.293,VALID,0,VALID,75.3803,VALID,483.915,VALID,22.5689,VALID,133,VALID,0.916797,
2014-02-12, 09:01:04,VALID,916.295,VALID,0,VALID,74.1377,VALID,417.839,VALID,22.7428,VALID,151,VALID,0.908984,
2014-02-12, 09:02:04,VALID,916.298,VALID,0,VALID,73.0247,VALID,377.763,VALID,22.8209,VALID,170,VALID,1.06836,
2014-02-12, 09:03:04,VALID,916.321,VALID,0,VALID,73.6574,VALID,387.218,VALID,22.8404,VALID,193,VALID,0.991016,
2014-02-12, 09:04:04,VALID,916.308,VALID,0,VALID,74.7247,VALID,349.291,VALID,22.8989,VALID,183,VALID,0.9,
2014-02-12, 09:05:04,VALID,916.315,VALID,0,VALID,73.0323,VALID,388.83,VALID,22.7428,VALID,172,VALID,1.7375,
2014-02-12, 09:06:04,VALID,916.296,VALID,0,VALID,73.6879,VALID,445.236,VALID,22.5689,VALID,167,VALID,1.40508,
2014-02-12, 09:07:04,VALID,916.287,VALID,0,VALID,74.9153,VALID,338.225,VALID,22.6274,VALID,160,VALID,0.304688,
2014-02-12, 09:08:04,VALID,916.312,VALID,0,VALID,74.8924,VALID,351.225,VALID,22.7836,VALID,128,VALID,0.737891,
2014-02-12, 09:09:04,VALID,916.272,VALID,0,VALID,74.7705,VALID,323.935,VALID,22.8031,VALID,178,VALID,1.01836,
2014-02-12, 09:10:04,VALID,916.288,VALID,0,VALID,74.2444,VALID,337.15,VALID,22.8031,VALID,164,VALID,1.01641,
2014-02-12, 09:11:04,VALID,916.281,VALID,0,VALID,73.6574,VALID,376.474,VALID,22.8616,VALID,152,VALID,1.06445,
2014-02-12, 09:12:04,VALID,916.3,VALID,0,VALID,73.9319,VALID,368.093,VALID,22.9592,VALID,139,VALID,0.864453,
2014-02-12, 09:13:04,VALID,916.31,VALID,0,VALID,71.6982,VALID,539.999,VALID,22.9575,VALID,156,VALID,1.60156,
2014-02-12, 09:14:04,VALID,916.346,VALID,0,VALID,73.4516,VALID,394.846,VALID,22.9592,VALID,163,VALID,1.51445,
2014-02-12, 09:15:04,VALID,916.325,VALID,0,VALID,74.5265,VALID,440.616,VALID,22.9983,VALID,132,VALID,0.661719,
2014-02-12, 09:16:04,VALID,916.339,VALID,0,VALID,73.4287,VALID,348.109,VALID,23.1739,VALID,151,VALID,0.792969,
2014-02-12, 09:17:04,VALID,916.337,VALID,0,VALID,71.8431,VALID,340.911,VALID,23.3301,VALID,178,VALID,0.582422,
2014-02-12, 09:18:04,VALID,916.361,VALID,0,VALID,72.2547,VALID,335.216,VALID,23.4082,VALID,157,VALID,1.15469,
2014-02-12, 09:19:04,VALID,916.303,VALID,0,VALID,72.0641,VALID,405.59,VALID,23.268,VALID,150,VALID,1.31797,
2014-02-12, 09:20:04,VALID,916.359,VALID,0,VALID,73.1162,VALID,427.831,VALID,23.2502,VALID,139,VALID,0.789844,
2014-02-12, 09:21:04,VALID,916.345,VALID,0,VALID,72.979,VALID,442.443,VALID,23.4064,VALID,138,VALID,0.422656,
2014-02-12, 09:22:04,VALID,916.352,VALID,0,VALID,71.8278,VALID,475.964,VALID,23.5626,VALID,146,VALID,0.782422,
2014-02-12, 09:23:04,VALID,916.342,VALID,0,VALID,71.6677,VALID,626.382,VALID,23.7187,VALID,159,VALID,1.20039,
2014-02-12, 09:24:04,VALID,916.319,VALID,0,VALID,70.1583,VALID,723.294,VALID,23.9335,VALID,161,VALID,1.18359,
2014-02-12, 09:25:04,VALID,916.314,VALID,0,VALID,70.5014,VALID,537.206,VALID,24.1464,VALID,147,VALID,1.13281,
2014-02-12, 09:26:04,VALID,916.303,VALID,0,VALID,68.7403,VALID,544.189,VALID,24.1659,VALID,158,VALID,1.25352,
2014-02-12, 09:27:04,VALID,916.334,VALID,0,VALID,69.0453,VALID,698.69,VALID,24.283,VALID,158,VALID,1.07227,
2014-02-12, 09:28:04,VALID,916.317,VALID,0,VALID,68.9614,VALID,576.314,VALID,24.3221,VALID,158,VALID,1.19219,
2014-02-12, 09:29:04,VALID,916.317,VALID,0,VALID,68.7098,VALID,711.583,VALID,24.4002,VALID,130,VALID,0.745703,
2014-02-12, 09:30:04,VALID,916.316,VALID,0,VALID,68.3668,VALID,748.435,VALID,24.7321,VALID,159,VALID,0.940625,
2014-02-12, 09:31:04,VALID,916.34,VALID,0,VALID,65.8968,VALID,611.985,VALID,24.8102,VALID,165,VALID,1.70547,
2014-02-12, 09:32:04,VALID,916.349,VALID,0,VALID,67.9323,VALID,641.101,VALID,24.8121,VALID,165,VALID,0.540234,
2014-02-12, 09:33:04,VALID,916.311,VALID,0,VALID,68.4507,VALID,741.774,VALID,25.0659,VALID,165,VALID,0.564453,
2014-02-12, 09:34:04,VALID,916.347,VALID,0,VALID,63.343,VALID,679.028,VALID,25.2808,VALID,169,VALID,0.933984,
2014-02-12, 09:35:04,VALID,916.305,VALID,0,VALID,65.3022,VALID,669.466,VALID,25.357,VALID,125,VALID,0.538281,
2014-02-12, 09:36:04,VALID,916.319,VALID,0,VALID,65.165,VALID,675.053,VALID,25.3179,VALID,162,VALID,1.77266,
2014-02-12, 09:37:04,VALID,916.329,VALID,0,VALID,66.5753,VALID,738.98,VALID,25.2612,VALID,171,VALID,1.53672,
2014-02-12, 09:38:04,VALID,916.342,VALID,0,VALID,65.7901,VALID,652.168,VALID,25.0836,VALID,173,VALID,0.93125,
2014-02-12, 09:39:04,VALID,916.365,VALID,0,VALID,64.3569,VALID,676.127,VALID,25.2203,VALID,165,VALID,1.41797,
2014-02-12, 09:40:04,VALID,916.335,VALID,0,VALID,64.6161,VALID,757.675,VALID,25.4156,VALID,177,VALID,0.863281,
2014-02-12, 09:41:04,VALID,916.327,VALID,0,VALID,63.3277,VALID,609.299,VALID,25.6714,VALID,166,VALID,1.22461,
2014-02-12, 09:42:04,VALID,916.328,VALID,0,VALID,61.9174,VALID,588.992,VALID,25.5718,VALID,129,VALID,1.26797,
2014-02-12, 09:43:04,VALID,916.322,VALID,0,VALID,62.1308,VALID,596.513,VALID,25.6109,VALID,125,VALID,1.00586,
2014-02-12, 09:44:04,VALID,916.294,VALID,0,VALID,62.5273,VALID,630.465,VALID,25.5913,VALID,148,VALID,1.18789,
2014-02-12, 09:45:04,VALID,916.264,VALID,0,VALID,62.3595,VALID,670.97,VALID,25.689,VALID,132,VALID,0.835156,
2014-02-12, 09:46:04,VALID,916.277,VALID,0,VALID,60.873,VALID,699.979,VALID,25.8062,VALID,111,VALID,1.16484,
2014-02-12, 09:47:04,VALID,916.253,VALID,0,VALID,61.0788,VALID,744.89,VALID,25.8257,VALID,111,VALID,0.212891,
2014-02-12, 09:48:04,VALID,916.296,VALID,0,VALID,60.4079,VALID,553.214,VALID,26.0796,VALID,122,VALID,0.926172,
2014-02-12, 09:49:04,VALID,916.283,VALID,0,VALID,60.5375,VALID,495.089,VALID,26.2945,VALID,81,VALID,0.445313,
2014-02-12, 09:50:04,VALID,916.295,VALID,0,VALID,61.1017,VALID,498.849,VALID,26.3511,VALID,140,VALID,1.42383,
2014-02-12, 09:51:04,VALID,916.288,VALID,0,VALID,56.6115,VALID,607.795,VALID,26.3726,VALID,153,VALID,1.00156,
2014-02-12, 09:52:04,VALID,916.297,VALID,0,VALID,56.2074,VALID,608.547,VALID,26.4508,VALID,153,VALID,0.844531,
2014-02-12, 09:53:04,VALID,916.264,VALID,0,VALID,55.3308,VALID,629.498,VALID,26.5485,VALID,153,VALID,0.4875,
2014-02-12, 09:54:04,VALID,916.235,VALID,0,VALID,55.1402,VALID,622.944,VALID,26.6657,VALID,146,VALID,0.306641,
2014-02-12, 09:55:04,VALID,916.218,VALID,0,VALID,50.1697,VALID,582.653,VALID,26.7634,VALID,155,VALID,1.19102,
2014-02-12, 09:56:04,VALID,916.229,VALID,0,VALID,47.4558,VALID,546.553,VALID,26.5855,VALID,165,VALID,0.592969,
2014-02-12, 09:57:04,VALID,916.197,VALID,0,VALID,47.7302,VALID,495.841,VALID,26.5485,VALID,125,VALID,0.71875,
2014-02-12, 09:58:04,VALID,916.179,VALID,0,VALID,49.9639,VALID,710.401,VALID,26.7243,VALID,183,VALID,0.571875,
2014-02-12, 09:59:04,VALID,916.203,VALID,0,VALID,49.6818,VALID,534.09,VALID,26.8415,VALID,184,VALID,0.796484,
2014-02-12, 10:00:04,VALID,916.213,VALID,0,VALID,49.941,VALID,650.986,VALID,26.9999,VALID,163,VALID,0.107422,
2014-02-12, 10:01:04,VALID,916.205,VALID,0,VALID,47.1203,VALID,547.95,VALID,27.2323,VALID,165,VALID,0.382813,
2014-02-12, 10:02:04,VALID,916.212,VALID,0,VALID,48.6298,VALID,641.209,VALID,27.5059,VALID,165,VALID,0.343359,
2014-02-12, 10:03:04,VALID,916.201,VALID,0,VALID,45.2526,VALID,634.977,VALID,27.6817,VALID,165,VALID,0.647656,
2014-02-12, 10:04:04,VALID,916.208,VALID,0,VALID,48.6145,VALID,569.331,VALID,27.584,VALID,165,VALID,0.687891,
2014-02-12, 10:05:04,VALID,916.194,VALID,0,VALID,48.767,VALID,694.929,VALID,27.584,VALID,156,VALID,0.672656,
2014-02-12, 10:06:04,VALID,916.228,VALID,0,VALID,47.1661,VALID,705.351,VALID,27.7599,VALID,156,VALID,0.378906,
2014-02-12, 10:07:04,VALID,916.21,VALID,0,VALID,48.7289,VALID,688.375,VALID,27.9163,VALID,150,VALID,0.821094,
2014-02-12, 10:08:04,VALID,916.203,VALID,0,VALID,47.3643,VALID,796.246,VALID,27.9749,VALID,179,VALID,1.35625,
2014-02-12, 10:09:04,VALID,916.208,VALID,0,VALID,45.649,VALID,620.688,VALID,27.799,VALID,174,VALID,1.00469,
2014-02-12, 10:10:04,VALID,916.192,VALID,0,VALID,47.0289,VALID,706.103,VALID,27.6036,VALID,168,VALID,0.665234,
2014-02-12, 10:11:04,VALID,916.212,VALID,0,VALID,45.6719,VALID,568.901,VALID,27.6796,VALID,168,VALID,0.199219,
2014-02-12, 10:12:04,VALID,916.193,VALID,0,VALID,44.9782,VALID,648.837,VALID,27.7208,VALID,168,VALID,0.572656,
2014-02-12, 10:13:04,VALID,916.197,VALID,0,VALID,47.2804,VALID,766.485,VALID,27.7578,VALID,139,VALID,0.726953,
2014-02-12, 10:14:04,VALID,916.2,VALID,0,VALID,49.1405,VALID,696.111,VALID,27.7969,VALID,158,VALID,0.817187,
2014-02-12, 10:15:04,VALID,916.221,VALID,0,VALID,49.5446,VALID,753.592,VALID,27.8555,VALID,198,VALID,0.462891,
2014-02-12, 10:16:04,VALID,916.191,VALID,0,VALID,50.1011,VALID,791.197,VALID,27.9553,VALID,253,VALID,1.04844,
2014-02-12, 10:17:04,VALID,916.189,VALID,0,VALID,50.9854,VALID,658.507,VALID,27.8555,VALID,252,VALID,0.316016,
2014-02-12, 10:18:04,VALID,916.217,VALID,0,VALID,48.4239,VALID,654.317,VALID,27.621,VALID,253,VALID,1.44297,
2014-02-12, 10:19:04,VALID,916.223,VALID,0,VALID,48.9881,VALID,535.594,VALID,27.367,VALID,129,VALID,1.26836,
2014-02-12, 10:20:04,VALID,916.203,VALID,0,VALID,48.9195,VALID,593.935,VALID,27.3279,VALID,217,VALID,1.24883,
2014-02-12, 10:21:04,VALID,916.163,VALID,0,VALID,48.8127,VALID,720.5,VALID,27.4061,VALID,188,VALID,1.57813,
2014-02-12, 10:22:04,VALID,916.17,VALID,0,VALID,49.3921,VALID,682.681,VALID,27.5017,VALID,201,VALID,1.46484,
2014-02-12, 10:23:04,VALID,916.192,VALID,0,VALID,50.5661,VALID,680.102,VALID,27.4431,VALID,185,VALID,1.17305,
2014-02-12, 10:24:04,VALID,916.168,VALID,0,VALID,49.3692,VALID,697.723,VALID,27.5408,VALID,211,VALID,1.14766,
2014-02-12, 10:25:04,VALID,916.182,VALID,0,VALID,48.8432,VALID,682.466,VALID,27.6385,VALID,232,VALID,1.28359,
2014-02-12, 10:26:04,VALID,916.184,VALID,0,VALID,49.0338,VALID,693.747,VALID,27.6796,VALID,239,VALID,0.319531,
2014-02-12, 10:27:04,VALID,916.166,VALID,0,VALID,48.1647,VALID,688.268,VALID,27.7752,VALID,224,VALID,1.42109,
2014-02-12, 10:28:04,VALID,916.182,VALID,0,VALID,49.1863,VALID,698.045,VALID,27.7773,VALID,228,VALID,1.35742,
2014-02-12, 10:29:04,VALID,916.161,VALID,0,VALID,49.9486,VALID,695.252,VALID,27.7557,VALID,184,VALID,1.41758,
2014-02-12, 10:30:04,VALID,916.136,VALID,0,VALID,47.7455,VALID,684.722,VALID,27.5994,VALID,207,VALID,0.749219,
2014-02-12, 10:31:04,VALID,916.165,VALID,0,VALID,50.1316,VALID,690.632,VALID,27.5819,VALID,191,VALID,1.275,
2014-02-12, 10:32:04,VALID,916.158,VALID,0,VALID,47.6082,VALID,687.516,VALID,27.6796,VALID,189,VALID,1.67578,